Flag Weather past 2 weeks in Monaco, Monaco

Now
54 °F

Passing clouds.


Feels Like: 50 °F
Forecast: 51 / 68 °F
Wind: 12 mph from Northwest

Location: Nice Airport

Current Time: Oct 31, 2014 at 7:33:56 AM

Latest Report: Oct 31, 2014 at 7:00 AM


Visibility: N/A

Pressure: 30.24 "Hg

Humidity: 67%

Dew point: 43 °F

Location of MonacoLocation

Historic Weather in Monaco — Graph

°F

Monaco temperature yesterday

Maximum temperature yesterday: 68 °F (at 12:00 PM)
Minimum temperature yesterday: 54 °F (at 4:00 AM)
Average temperature yesterday: 60 °F

Past Weeks' High & Low Weather Summary

 TemperatureHumidityPressure
High75 °F (Oct 17, 12:00 PM)88% (Oct 16, 11:00 PM)30.27 "Hg (Oct 16, 11:00 PM)
Low54 °F (Oct 23, 6:00 AM)14% (Oct 22, 11:30 AM)29.65 "Hg (Oct 22, 12:00 AM)
Average65 °F63%30.05 "Hg
* Reported Oct 16 7:00 AM — Oct 31 6:30 AM, Monaco, Weather by CustomWeather, © 2014

Note: Actual official high and low records may vary slightly from our data, if they occured in-between our weather recording intervals... More about our weather records

Advertising

Monaco weather history for previous 24 hours

 ConditionsComfort  
Time TempWeatherWind HumidityBarometerVisibility
6:30 AM
Oct 31
54 °FPassing clouds.13 mph67%30.24 "HgN/A
6:00 AM54 °FPassing clouds.12 mph67%30.24 "HgN/A
5:30 AM54 °FPassing clouds.10 mph72%30.24 "HgN/A
5:00 AM54 °FPassing clouds.12 mph72%30.24 "HgN/A
4:30 AM54 °FPassing clouds.10 mph72%30.24 "HgN/A
4:00 AM55 °FPassing clouds.10 mph67%30.24 "HgN/A
3:30 AM55 °FPassing clouds.12 mph67%30.24 "HgN/A
3:00 AM55 °FPassing clouds.13 mph72%30.24 "HgN/A
2:30 AM55 °FPassing clouds.12 mph72%30.24 "HgN/A
2:00 AM55 °FPassing clouds.13 mph72%30.24 "HgN/A
1:30 AM55 °FPassing clouds.12 mph77%30.24 "HgN/A
1:00 AM55 °FPassing clouds.10 mph77%30.24 "HgN/A
12:21 AM55 °FPassing clouds.12 mph77%30.24 "HgN/A
12:00 AM57 °FPassing clouds.10 mph72%30.24 "HgN/A
11:30 PM
Oct 30
57 °FPassing clouds.9 mph77%30.24 "HgN/A
11:14 PM57 °FPassing clouds.9 mph77%30.24 "HgN/A
10:00 PM57 °FPassing clouds.7 mph77%30.24 "HgN/A
9:30 PM59 °FPassing clouds.8 mph72%30.24 "HgN/A
9:00 PM59 °FPassing clouds.8 mph77%30.24 "HgN/A
8:37 PM59 °FPassing clouds.8 mph77%30.24 "HgN/A
8:00 PM61 °FPassing clouds.9 mph72%30.21 "HgN/A
7:30 PM61 °FPassing clouds.8 mph72%30.21 "HgN/A
7:00 PM63 °FPassing clouds.6 mph68%30.21 "HgN/A
6:30 PM63 °FPassing clouds.3 mph68%30.21 "HgN/A
6:00 PM64 °FPassing clouds.No wind64%30.21 "HgN/A
5:30 PM64 °FPassing clouds.2 mph64%30.18 "HgN/A
5:00 PM66 °FScattered clouds.3 mph60%30.18 "HgN/A
4:30 PM66 °FPassing clouds.3 mph60%30.18 "HgN/A
4:00 PM66 °FPassing clouds.5 mph60%30.18 "HgN/A
3:30 PM66 °FPassing clouds.6 mph64%30.18 "HgN/A
3:00 PM68 °FPassing clouds.6 mph56%30.18 "HgN/A
2:30 PM66 °FPassing clouds.7 mph64%30.18 "HgN/A
2:00 PM66 °FPassing clouds.7 mph64%30.18 "HgN/A
1:30 PM66 °FPassing clouds.6 mph64%30.18 "HgN/A
1:00 PM66 °FPassing clouds.6 mph60%30.18 "HgN/A
12:00 PM68 °FPassing clouds.2 mph53%30.21 "HgN/A
11:30 AM66 °FPassing clouds.7 mph49%30.21 "HgN/A
11:00 AM64 °FPassing clouds.9 mph49%30.21 "HgN/A
10:30 AM61 °FPassing clouds.10 mph52%30.21 "HgN/A
10:00 AM59 °FPassing clouds.10 mph55%30.21 "HgN/A
9:30 AM57 °FPassing clouds.12 mph59%30.21 "HgN/A
9:00 AM55 °FPassing clouds.12 mph59%30.18 "HgN/A
8:30 AM55 °FPassing clouds.12 mph63%30.18 "HgN/A
8:00 AM54 °FPassing clouds.12 mph63%30.18 "HgN/A
7:30 AM54 °FPassing clouds.12 mph63%30.18 "HgN/A
7:00 AM54 °FPassing clouds.12 mph67%30.15 "HgN/A
Weather by CustomWeather, © 2014

See weather overviewHow to use our weather pages